Weather Roundup
Issued by NWS Chicago, IL

Home | Current Version | Previous Version | Graphics & Text | Print | Product List | Glossary On
Versions: 1 2 3 4 5 6 7 8 9 10 11 12 13 14 15 16 17 18 19 20 21 22 23 24 25 26 27 28 29 30 31 32 33 34 35 36 37 38 39 40 41 42 43 44 45 46 47 48 49 50
000
NZUS59 KLOT 170512
HRRLOT

CHICAGO AREA WEATHER ROUNDUP
NATIONAL WEATHER SERVICE CHICAGO/ROMEOVILLE IL
1100 PM CST MON JAN 16 2017

NOTE: "FAIR" INDICATES FEW OR NO CLOUDS BELOW 12,000 FEET WITH NO
SIGNIFICANT WEATHER AND/OR OBSTRUCTIONS TO VISIBILITY.

* THESE STATIONS ARE NOT UNDER NWS QUALITY CONTROL. THEY ALSO MAY NOT
  REPORT WEATHER SUCH AS PRECIPITATION OR FOG.

ILZ005-006-012>014-019>023-170600-
NORTHEAST ILLINOIS

CITY           SKY/WX    TMP DP  RH WIND       PRES   REMARKS
OHARE          DRIZZLE   37  36  96 NE8       29.86F FOG
MIDWAY         FOG       37  37 100 NE6       29.86F VSB 1
AURORA         FOG       38  36  92 NE9       29.85F VSB 3/4
LANSING*       CLOUDY    42  42 100 SE8       29.86F
JOLIET*        CLOUDY    42  42 100 CALM      29.85F FOG
WAUKEGAN       FOG       37  36  96 E10       29.88F VSB 1
DUPAGE AIRPORT MIX PCPN  37  35  92 NE7       29.86F VSB 3/4
WHEELING       CLOUDY    37  36  96 NE6       29.89F FOG
KANKAKEE*      FOG       41  40  97 CALM      29.85F VSB 1/2
MORRIS*        FOG       37  36  99 NE3       29.83F VSB 1/4
LEWIS AIRPORT* FOG       42  42 100 CALM      29.84F VSB 3/4
NORTHERLY ISL    N/A     35  34  96 N1          N/A
$$

WIZ051-052-058>065-066-070>072-170600-
SOUTHEAST WISCONSIN

CITY           SKY/WX    TMP DP  RH WIND       PRES   REMARKS
MILWAUKEE      CLOUDY    37  36  96 E7        29.92F FOG
KENOSHA*       FOG       37  36  96 E10       29.89F VSB 3/4
RACINE*        LGT RAIN  36  35  96 E9        29.91F FOG
WAUKESHA       FOG       32  32 100 E7        29.92F VSB 1   WCI  26
WEST BEND      FOG       34  34 100 E8        29.92F VSB 3/4 WCI  27
$$

INZ001>003-010>013-019-020-170600-
NORTHWEST INDIANA

CITY           SKY/WX    TMP DP  RH WIND       PRES   REMARKS
GARY*          LGT RAIN  44  44  99 SE9       29.87F
MICHIGAN CITY* NOT AVBL
RENSSELAER*    NOT AVBL
VALPARAISO     FOG       39  39 100 E8        29.89F VSB 1/4
$$

LMZ740>746-170600-
SOUTHERN LAKE MICHIGAN

STATION/POSITION TIME  SKY/WX   TEMP WIND        PRES    VSBY
                                AIR  DIR/SP/G
                 (UTC)          (F)  (DEG/KT/KT) (MB)    (MI)
HARRISON CRIB    0440            36   70/  4/  5   N/A
BURNHAM HARBOR   0500            35   40/  1/  3   N/A
CALUMET HARBOR   0442            38   90/  5/  6 1010.9F
BURNS HARBOR     0440            44  140/ 13/ 18 1012.5F
MICHIGAN CITY    0440            42  110/ 14/ 18   N/A
$$

ABBREVIATIONS USED IN REMARKS
   TC - TEMPERATURE IN CELSIUS
  WCI - WIND CHILL INDEX
   HX - HEAT INDEX
  VSB - VISIBILITY
$$




USA.gov is the U.S. government's official web portal to all federal, state and local government web resources and services.